軌道要素
Epoch 2010 May 4.0 TT = JDT 2455320.5
T 2010 Apr. 30.02335 TT MPC
q 1.4223949 (2000.0) P Q
z -0.0005906 Peri. 66.17301 -0.29950886 +0.09770465
+/-0.0000002 Node 257.85586 -0.67324337 +0.68320579
e 1.0008401 Incl. 103.87942 +0.67604572 +0.72365990
From 2307 observations 2009 May 27-2011 Nov. 26, mean residual 0".5.
|